[[{"header":{"parameterUnit":"m.s-1","parameterCategory":1,"la1":30.2991,"la2":30.254,"lo1":-89.0895,"lo2":-89.0444,"dy":0.0017,"dx":0.0017,"nx":28,"ny":28,"refTime":"2025-11-20T09:00:00:Z","depth":0,"parameterNumber":2,"parameterNumberName":"U-component_of_WINDS"},"data":[0,0,0,0,0,0,0,0,0,0,0,0,0,0,0,0,0,0,0,0,0,0,0,0,0,0,0,0,0,0,0,0,0,0,0,0,0,0,0,0,0,0,0,0,0,0,0,0,0,0,0,0,0,0,0,0,0,0,-1.971,-1.9709,0,-1.9646,-1.9645,-1.9645,-1.9536,-1.9534,-1.9532,-1.953,-1.9467,-1.9467,-1.9467,0,0,0,0,0,0,0,0,0,0,0,0,0,-1.9741,-1.9741,-1.971,-1.9709,-1.9708,-1.9646,-1.9645,-1.9644,-1.9537,-1.9534,-1.9532,-1.9529,-1.9467,-1.9467,-1.9467,0,0,0,0,0,0,0,0,0,0,0,0,0,-1.9707,-1.9741,-1.971,-1.9647,-1.9641,-1.9646,-1.9645,-1.9644,-1.9537,-1.9534,-1.9531,-1.9528,-1.9467,-1.9467,-1.9467,-1.953,0,0,-1.9468,-1.9468,0,0,0,0,0,0,0,0,-1.9709,-1.9706,-1.9657,-1.9651,-1.9644,-1.9596,-1.9633,-1.9606,-1.9538,-1.9577,-1.953,-1.9527,-1.9512,-1.9509,-1.9503,-1.9527,-1.9524,-1.9468,-1.9468,-1.9469,-1.9469,0,0,0,0,0,0,0,-1.9712,-1.9709,-1.9685,-1.9657,-1.9649,-1.9623,-1.9615,-1.9627,-1.9562,-1.9573,-1.9565,-1.9559,-1.9508,-1.9504,-1.9501,-1.9523,-1.9468,-1.9468,-1.9469,-1.9469,-1.9595,-1.9598,0,0,0,0,0,0,-1.9723,-1.9711,-1.9687,-1.9683,-1.967,-1.9625,-1.9615,-1.9615,-1.9562,-1.9551,-1.9561,-1.9554,-1.9504,-1.9501,-1.9499,-1.9568,-1.9469,-1.9469,-1.9469,-1.9592,-1.9596,-1.9599,0,0,0,0,0,0,-1.9724,-1.9722,-1.9689,-1.9695,-1.9689,-1.9627,-1.9627,-1.9615,-1.961,-1.9553,-1.9541,-1.9568,-1.9502,-1.9498,-1.9523,-1.9565,-1.9469,-1.9469,-1.9588,-1.9593,-1.9597,-1.9709,0,0,0,0,0,0,-1.9726,-1.9723,-1.9746,-1.9696,-1.9689,-1.9714,-1.963,-1.9616,-1.961,-1.96,-1.9556,-1.9546,-1.9499,-1.9523,-1.9523,-1.9563,-1.9469,-1.9584,-1.959,-1.9596,-1.9701,-1.9717,-1.973,0,0,0,0,0,-1.9727,-1.978,-1.9747,-1.9745,-1.9716,-1.9717,-1.9713,-1.9657,-1.9614,-1.9637,-1.96,-1.9548,-1.956,-1.9526,-1.9526,-1.9567,-1.9581,-1.9589,-1.9595,-1.9695,-1.9714,-1.973,0,0,0,0,0,0,-1.9837,-1.9772,-1.9735,-1.9774,-1.9752,-1.9699,-1.9725,-1.9679,-1.9669,-1.966,-1.9592,-1.9583,-1.9617,-1.9594,-1.9557,-1.9625,-1.9562,-1.957,-1.9638,-1.9656,-1.967,-1.9675,-1.947,0,0,0,0,0,-1.9865,-1.9871,-1.9815,-1.9854,-1.9845,-1.9788,-1.9786,-1.9745,-1.9719,-1.971,-1.9675,-1.9653,-1.9652,-1.9653,-1.9648,-1.9697,-1.9687,-1.9725,-1.974,-1.9752,-1.976,-1.9784,-1.9801,-1.9623,-1.9623,-1.9622,0,0,-1.9925,-1.989,-1.9898,-1.9875,-1.9853,-1.9862,-1.978,-1.9792,-1.9798,-1.9712,-1.9733,-1.9707,-1.9678,-1.9715,-1.973,-1.9697,-1.9806,-1.9761,-1.9772,-1.9772,-1.9793,-1.981,-1.9826,-1.9627,-1.9627,-1.9626,0,0,-2.0037,-2.0011,-2.0041,-2.0021,-1.9988,-1.995,-1.9957,-1.9911,-1.9891,-1.991,-1.9846,-1.9852,-1.9852,-1.9833,-1.9824,-1.993,-1.9882,-1.9931,-2.0007,-2.0032,-2.0046,-2.0059,-2.0097,-2.0111,-1.9938,-1.9939,-1.9939,0,-2.0115,-2.0124,-2.0063,-2.0079,-2.0071,-1.9993,-2.0023,-2.0006,-1.9975,-1.9972,-1.9935,-1.9933,-1.9908,-1.994,-1.9966,-1.9961,-1.9968,-1.9936,-2.0049,-2.0061,-2.0071,-2.0107,-2.0122,-1.9945,-1.9944,-1.9944,-1.9943,0,-2.0221,-2.0229,-2.0257,-2.0228,-2.0223,-2.0247,-2.019,-2.0193,-2.0152,-2.0118,-2.014,-2.0107,-2.0095,-2.0099,-2.006,-2.0127,-2.0107,-2.0061,-1.9998,-2.0095,-2.0128,-2.0141,-1.9954,-1.9952,-1.995,-1.9948,0,0,-2.0401,-2.0338,-2.0349,-2.0335,-2.0294,-2.0299,-2.0319,-2.0306,-2.0311,-2.0292,-2.0307,-2.0309,-2.0266,-2.0256,-2.0214,-2.0236,-2.0323,-2.0187,-2.0185,-2.0214,-2.0394,-2.043,-2.0446,-2.029,-2.0292,-2.0294,-2.0397,0,-2.0505,-2.0535,-2.048,-2.0524,-2.053,-2.0456,-2.0474,-2.0451,-2.042,-2.0421,-2.0387,-2.0389,-2.0332,-2.0325,-2.0344,-2.0308,-2.0358,-2.03,-2.0305,-2.0305,-2.0315,-2.0463,-2.05,-2.0599,-2.0409,-2.0411,-2.0413,0,-2.063,-2.0616,-2.066,-2.0617,-2.0617,-2.0634,-2.0619,-2.0621,-2.0594,-2.0569,-2.0559,-2.0509,-2.0526,-2.0465,-2.0488,-2.045,-2.0449,-2.0432,-2.0434,-2.0433,-2.0365,-2.0466,-2.0629,-2.0644,-2.0432,-2.0431,-2.0429,0,-2.0757,-2.075,-2.0775,-2.0766,-2.0715,-2.0729,-2.0709,-2.0678,-2.0675,-2.0661,-2.0658,-2.0648,-2.0642,-2.0636,-2.0585,-2.0545,-2.0615,-2.0549,-2.0596,-2.0598,-2.0614,-2.0614,-2.078,-2.0613,-2.0613,-2.0613,-2.0613,0,-2.0878,-2.0908,-2.0832,-2.0848,-2.0879,-2.0817,-2.085,-2.0822,-2.0796,-2.0806,-2.0741,-2.0752,-2.0684,-2.0688,-2.0648,-2.0674,-2.0672,-2.0654,-2.0643,-2.066,-2.0662,-2.0658,-2.065,-2.0617,-2.0616,-2.0615,-2.0614,0,-2.1026,-2.0975,-2.0998,-2.0949,-2.0937,-2.0963,-2.092,-2.0933,-2.0898,-2.0911,-2.0911,-2.0855,-2.0856,-2.0805,-2.0796,-2.0769,-2.0812,-2.0789,-2.0821,-2.0814,-2.0864,-2.086,-2.1033,-2.1053,-2.0874,-2.0876,-2.0877,0,-2.1107,-2.1128,-2.1081,-2.1082,-2.1065,-2.1068,-2.1064,-2.1004,-2.1002,-2.0973,-2.099,-2.0986,-2.0979,-2.0984,-2.0943,-2.0936,-2.0912,-2.0973,-2.091,-2.0927,-2.0913,-2.0913,-2.0915,-2.0986,-2.0989,-2.0991,-2.0992,0,-2.1256,-2.123,-2.1226,-2.1214,-2.1211,-2.1198,-2.1182,-2.1187,-2.1121,-2.1123,-2.1123,-2.1118,-2.1108,-2.1104,-2.109,-2.1069,-2.1021,-2.1012,-2.1022,-2.104,-2.1058,-2.1049,-2.0858,-2.1008,-2.1007,-2.1006,-2.1005,-2.1004,-2.1373,-2.1388,-2.1358,-2.1356,-2.1337,-2.1323,-2.1333,-2.1299,-2.1297,-2.1284,-2.1249,-2.1255,-2.1228,-2.1202,-2.1187,-2.1191,-2.1161,-2.1176,-2.118,-2.1184,-2.1194,-2.1057,-2.1188,-2.1187,-2.1187,-2.1186,-2.1186,0,-2.1519,-2.1496,-2.1495,-2.1473,-2.1472,-2.1425,-2.1405,-2.1407,-2.1413,-2.1391,-2.1386,-2.1386,-2.1383,-2.1342,-2.1334,-2.1345,-2.1323,-2.1345,-2.1344,-2.134,-2.1222,-2.1213,-2.1364,-2.1364,-2.1364,-2.1364,-2.1364,-2.1364,-2.1595,-2.1619,-2.159,-2.1605,-2.1581,-2.1586,-2.1578,-2.1565,-2.1548,-2.1551,-2.1547,-2.1521,-2.1492,-2.1481,-2.1476,-2.1464,-2.1465,-2.1495,-2.1476,-2.1366,-2.1349,-2.1332,-2.1324,-2.1495,-2.1496,-2.1594,-2.1595,-2.1596]},{"header":{"parameterUnit":"m.s-1","parameterCategory":1,"la1":30.2991,"la2":30.254,"lo1":-89.0895,"lo2":-89.0444,"dy":0.0017,"dx":0.0017,"nx":28,"ny":28,"refTime":"2025-11-20T09:00:00:Z","depth":0,"parameterNumber":3,"parameterNumberName":"V-component_of_WINDS"},"data":[0,0,0,0,0,0,0,0,0,0,0,0,0,0,0,0,0,0,0,0,0,0,0,0,0,0,0,0,0,0,0,0,0,0,0,0,0,0,0,0,0,0,0,0,0,0,0,0,0,0,0,0,0,0,0,0,0,0,-1.1426,-1.1425,0,-1.1411,-1.1411,-1.1411,-1.1378,-1.1377,-1.1376,-1.1376,-1.1361,-1.1361,-1.1361,0,0,0,0,0,0,0,0,0,0,0,0,0,-1.1424,-1.1424,-1.1426,-1.1425,-1.1425,-1.1411,-1.1411,-1.141,-1.1378,-1.1377,-1.1376,-1.1375,-1.136,-1.1361,-1.1361,0,0,0,0,0,0,0,0,0,0,0,0,0,-1.1419,-1.1424,-1.1426,-1.1407,-1.1405,-1.1411,-1.1411,-1.141,-1.1378,-1.1377,-1.1376,-1.1375,-1.136,-1.1361,-1.1361,-1.1383,0,0,-1.1362,-1.1362,0,0,0,0,0,0,0,0,-1.1419,-1.1419,-1.141,-1.1408,-1.1406,-1.1395,-1.1404,-1.1401,-1.1378,-1.1388,-1.1376,-1.1375,-1.1373,-1.1372,-1.1372,-1.1383,-1.1382,-1.1362,-1.1362,-1.1362,-1.1362,0,0,0,0,0,0,0,-1.1419,-1.1419,-1.142,-1.141,-1.1408,-1.1399,-1.1397,-1.1404,-1.1386,-1.1387,-1.1385,-1.1384,-1.1372,-1.1371,-1.1371,-1.1382,-1.1362,-1.1362,-1.1363,-1.1363,-1.1408,-1.1409,0,0,0,0,0,0,-1.1422,-1.142,-1.142,-1.1419,-1.141,-1.14,-1.1398,-1.14,-1.1386,-1.1383,-1.1385,-1.1382,-1.1371,-1.1371,-1.137,-1.1394,-1.1362,-1.1363,-1.1363,-1.1407,-1.1409,-1.141,0,0,0,0,0,0,-1.1423,-1.1423,-1.1421,-1.1419,-1.1418,-1.1401,-1.1403,-1.14,-1.14,-1.1384,-1.1381,-1.1388,-1.137,-1.137,-1.138,-1.1393,-1.1363,-1.1363,-1.1406,-1.1408,-1.1409,-1.1444,0,0,0,0,0,0,-1.1423,-1.1423,-1.1432,-1.1419,-1.1418,-1.1431,-1.1404,-1.14,-1.14,-1.1397,-1.1386,-1.1383,-1.137,-1.138,-1.138,-1.1393,-1.1363,-1.1405,-1.1407,-1.1409,-1.1441,-1.1446,-1.145,0,0,0,0,0,-1.1423,-1.1442,-1.1432,-1.1433,-1.1429,-1.1432,-1.1431,-1.1415,-1.1402,-1.141,-1.14,-1.1384,-1.1392,-1.1381,-1.1381,-1.1395,-1.1404,-1.1406,-1.1409,-1.1439,-1.1445,-1.145,0,0,0,0,0,0,-1.1457,-1.144,-1.1429,-1.1445,-1.144,-1.1427,-1.1437,-1.1422,-1.1421,-1.1418,-1.1398,-1.1396,-1.1409,-1.1403,-1.1391,-1.1415,-1.1395,-1.1398,-1.1418,-1.1424,-1.1428,-1.1429,-1.1364,0,0,0,0,0,-1.1467,-1.1471,-1.1456,-1.1472,-1.147,-1.1454,-1.1455,-1.1442,-1.1436,-1.1434,-1.1425,-1.1419,-1.142,-1.1422,-1.1422,-1.144,-1.1437,-1.1449,-1.1454,-1.1458,-1.146,-1.1468,-1.1473,-1.1417,-1.1417,-1.1417,0,0,-1.1486,-1.1478,-1.1482,-1.1478,-1.1473,-1.1477,-1.1452,-1.1458,-1.1461,-1.1435,-1.1444,-1.1437,-1.1429,-1.1443,-1.1449,-1.1438,-1.1475,-1.1461,-1.1464,-1.1464,-1.1471,-1.1476,-1.1481,-1.1419,-1.1419,-1.1418,0,0,-1.1524,-1.1519,-1.153,-1.1525,-1.1517,-1.1506,-1.1509,-1.1497,-1.1491,-1.15,-1.148,-1.1483,-1.1486,-1.1481,-1.1479,-1.1513,-1.1498,-1.1514,-1.1538,-1.1546,-1.155,-1.1554,-1.1565,-1.157,-1.1516,-1.1516,-1.1517,0,-1.155,-1.1556,-1.1538,-1.1545,-1.1544,-1.152,-1.1531,-1.1527,-1.152,-1.1519,-1.1508,-1.151,-1.1504,-1.1515,-1.1524,-1.1523,-1.1525,-1.1515,-1.1551,-1.1554,-1.1558,-1.1568,-1.1573,-1.1518,-1.1518,-1.1518,-1.1518,0,-1.1587,-1.1592,-1.1602,-1.1595,-1.1595,-1.1604,-1.1587,-1.1589,-1.1577,-1.1567,-1.1575,-1.1566,-1.1563,-1.1565,-1.1554,-1.1575,-1.1569,-1.1555,-1.1534,-1.1565,-1.1575,-1.1579,-1.1521,-1.152,-1.152,-1.1519,0,0,-1.1647,-1.1629,-1.1634,-1.163,-1.1618,-1.1621,-1.1629,-1.1626,-1.1628,-1.1623,-1.1629,-1.1631,-1.1617,-1.1615,-1.1602,-1.1609,-1.1636,-1.1594,-1.1593,-1.1601,-1.1658,-1.1668,-1.1673,-1.1626,-1.1626,-1.1627,-1.1658,0,-1.1682,-1.1695,-1.1678,-1.1694,-1.1697,-1.1674,-1.168,-1.1674,-1.1664,-1.1665,-1.1655,-1.1656,-1.1639,-1.1637,-1.1642,-1.1631,-1.1647,-1.1629,-1.163,-1.163,-1.1632,-1.1679,-1.169,-1.172,-1.1662,-1.1662,-1.1663,0,-1.1725,-1.1722,-1.1738,-1.1725,-1.1725,-1.1732,-1.1727,-1.1729,-1.172,-1.1713,-1.171,-1.1694,-1.17,-1.168,-1.1688,-1.1676,-1.1675,-1.167,-1.167,-1.167,-1.1648,-1.1679,-1.1729,-1.1734,-1.1669,-1.1668,-1.1668,0,-1.1766,-1.1766,-1.1775,-1.1773,-1.1758,-1.1762,-1.1756,-1.1747,-1.1746,-1.1742,-1.1741,-1.1738,-1.1736,-1.1734,-1.1717,-1.1705,-1.1726,-1.1706,-1.172,-1.172,-1.1725,-1.1725,-1.1776,-1.1725,-1.1725,-1.1725,-1.1725,0,-1.1807,-1.1818,-1.1794,-1.1799,-1.181,-1.1791,-1.1802,-1.1793,-1.1785,-1.1788,-1.1767,-1.1771,-1.1749,-1.175,-1.1737,-1.1744,-1.1744,-1.1737,-1.1734,-1.1739,-1.174,-1.1738,-1.1736,-1.1726,-1.1726,-1.1726,-1.1726,0,-1.1855,-1.184,-1.1848,-1.1833,-1.1829,-1.1838,-1.1824,-1.1828,-1.1817,-1.1821,-1.1821,-1.1803,-1.1803,-1.1786,-1.1782,-1.1774,-1.1786,-1.1779,-1.1789,-1.1786,-1.1801,-1.18,-1.1852,-1.1858,-1.1804,-1.1805,-1.1805,0,-1.1882,-1.189,-1.1875,-1.1875,-1.187,-1.1871,-1.187,-1.1851,-1.185,-1.184,-1.1846,-1.1843,-1.1841,-1.1841,-1.1828,-1.1824,-1.1816,-1.1835,-1.1816,-1.182,-1.1816,-1.1816,-1.1816,-1.1839,-1.184,-1.184,-1.1841,0,-1.1932,-1.1923,-1.1922,-1.1918,-1.1917,-1.1913,-1.1907,-1.1909,-1.1888,-1.1888,-1.1887,-1.1885,-1.188,-1.1878,-1.1872,-1.1865,-1.1849,-1.1847,-1.185,-1.1855,-1.186,-1.1857,-1.18,-1.1846,-1.1845,-1.1845,-1.1845,-1.1845,-1.1969,-1.1975,-1.1964,-1.1964,-1.1957,-1.1952,-1.1955,-1.1944,-1.1943,-1.1938,-1.1926,-1.1927,-1.1917,-1.1907,-1.1902,-1.1902,-1.1892,-1.1897,-1.1898,-1.1899,-1.1901,-1.1861,-1.19,-1.19,-1.19,-1.19,-1.19,0,-1.2017,-1.2009,-1.2009,-1.2001,-1.2,-1.1985,-1.1978,-1.1978,-1.1979,-1.1971,-1.1969,-1.1967,-1.1964,-1.195,-1.1946,-1.1948,-1.1941,-1.1948,-1.1947,-1.1946,-1.1911,-1.1908,-1.1954,-1.1954,-1.1954,-1.1954,-1.1954,-1.1954,-1.2042,-1.2049,-1.2039,-1.2043,-1.2035,-1.2035,-1.2032,-1.2027,-1.2021,-1.202,-1.2018,-1.2008,-1.1998,-1.1992,-1.1989,-1.1984,-1.1984,-1.1993,-1.1986,-1.1954,-1.1948,-1.1944,-1.1941,-1.1993,-1.1993,-1.2021,-1.2022,-1.2022]}]]